Вернуться в каталог

STARLINK-31029

АктивенСвязьVLEO
NORAD 58712·PAYLOAD·🇺🇸 United States

Запущен Jan 3, 2024 с Vandenberg Space Force Base

Loading…

Ближайшие Пролёты (ближайшие 24 часа)

TLE

СвежийSource: CelesTrak SupGP

Эпоха: Sep 15, 2026, 02:07 UTC

1 58712C 24002H   26258.08868056 -.00020107  00000+0 -59393-3 0  2586
2 58712  53.1590  68.7156 0001174  78.7808 299.2327 15.34408220    16

Отслеживайте STARLINK-31029 в реальном времени с AllMySat

Download on the App Store